• Em Portugal
  • Lista de países
  • Para 7 dias
  • Temperatura da água
  • Mapas de satélite
  • Mapa do tempo
  • Widgets de tempo
  • user-avatar
    Iniciar Sessão

    Previsão horária em Maun

    Hoje, 20 Julho, Sexta-feira

    Tempo Temperatura Precipitação Vento Pressão Humidade
    00:00 +15°C° 0 mm 4 m/s 687 mmHg 51%
    01:00 +14°C° 0 mm 4 m/s 687 mmHg 55%
    02:00 +13°C° 0 mm 4 m/s 687 mmHg 60%
    03:00 +12°C° 0 mm 3 m/s 687 mmHg 62%
    04:00 +12°C° 0 mm 3 m/s 687 mmHg 65%
    05:00 +11°C° 0 mm 3 m/s 686 mmHg 68%
    06:00 +11°C° 0 mm 3 m/s 687 mmHg 67%
    07:00 +12°C° 0 mm 3 m/s 687 mmHg 66%
    08:00 +13°C° 0 mm 4 m/s 687 mmHg 62%
    09:00 +15°C° 0 mm 4 m/s 688 mmHg 55%
    10:00 +18°C° 0 mm 3 m/s 688 mmHg 47%
    11:00 +21°C° 0 mm 3 m/s 688 mmHg 39%
    12:00 +22°C° 0 mm 3 m/s 688 mmHg 35%
    13:00 +24°C° 0 mm 3 m/s 687 mmHg 32%
    14:00 +25°C° 0 mm 3 m/s 687 mmHg 28%
    15:00 +25°C° 0 mm 3 m/s 686 mmHg 28%
    16:00 +25°C° 0 mm 3 m/s 686 mmHg 28%
    17:00 +25°C° 0 mm 3 m/s 686 mmHg 28%
    18:00 +22°C° 0 mm 3 m/s 686 mmHg 33%
    19:00 +20°C° 0 mm 3 m/s 685 mmHg 37%
    20:00 +18°C° 0 mm 3 m/s 685 mmHg 42%
    21:00 +17°C° 0 mm 3 m/s 686 mmHg 44%
    22:00 +16°C° 0 mm 3 m/s 686 mmHg 47%
    23:00 +16°C° 0 mm 3 m/s 686 mmHg 49%

    Amanhã, 21 Julho, Sábado

    Tempo Temperatura Precipitação Vento Pressão Humidade
    00:00 +14°C° 0 mm 3 m/s 686 mmHg 50%
    01:00 +14°C° 0 mm 3 m/s 686 mmHg 52%
    02:00 +13°C° 0 mm 3 m/s 686 mmHg 53%
    03:00 +13°C° 0 mm 3 m/s 686 mmHg 54%
    04:00 +12°C° 0 mm 3 m/s 686 mmHg 55%
    05:00 +12°C° 0 mm 3 m/s 686 mmHg 56%
    06:00 +12°C° 0 mm 3 m/s 686 mmHg 57%
    07:00 +12°C° 0 mm 3 m/s 687 mmHg 57%
    08:00 +12°C° 0 mm 3 m/s 687 mmHg 58%
    09:00 +15°C° 0 mm 4 m/s 687 mmHg 50%
    10:00 +19°C° 0 mm 4 m/s 688 mmHg 43%
    11:00 +21°C° 0 mm 4 m/s 689 mmHg 35%
    12:00 +23°C° 0 mm 4 m/s 688 mmHg 32%
    13:00 +25°C° 0 mm 3 m/s 688 mmHg 29%
    14:00 +26°C° 0 mm 3 m/s 687 mmHg 26%
    15:00 +26°C° 0 mm 3 m/s 687 mmHg 26%
    16:00 +26°C° 0 mm 3 m/s 686 mmHg 25%
    17:00 +26°C° 0 mm 3 m/s 686 mmHg 25%
    18:00 +24°C° 0 mm 3 m/s 686 mmHg 30%
    19:00 +21°C° 0 mm 3 m/s 686 mmHg 34%
    20:00 +19°C° 0 mm 3 m/s 686 mmHg 39%
    21:00 +18°C° 0 mm 3 m/s 686 mmHg 42%
    22:00 +17°C° 0 mm 3 m/s 687 mmHg 44%
    23:00 +16°C° 0 mm 3 m/s 687 mmHg 47%

    Depois de amanhã, 22 Julho, Domingo

    Tempo Temperatura Precipitação Vento Pressão Humidade
    00:00 +16°C° 0 mm 3 m/s 687 mmHg 49%
    01:00 +16°C° 0 mm 3 m/s 687 mmHg 51%
    02:00 +14°C° 0 mm 3 m/s 687 mmHg 54%
    03:00 +14°C° 0 mm 3 m/s 687 mmHg 58%
    04:00 +13°C° 0 mm 3 m/s 687 mmHg 62%
    05:00 +13°C° 0 mm 3 m/s 686 mmHg 66%
    06:00 +13°C° 0 mm 3 m/s 687 mmHg 65%
    07:00 +13°C° 0 mm 4 m/s 687 mmHg 63%
    08:00 +13°C° 0 mm 4 m/s 688 mmHg 61%
    09:00 +17°C° 0 mm 4 m/s 688 mmHg 53%
    10:00 +19°C° 0 mm 4 m/s 689 mmHg 45%
    11:00 +22°C° 0 mm 4 m/s 690 mmHg 37%
    12:00 +23°C° 0 mm 4 m/s 689 mmHg 33%
    13:00 +26°C° 0 mm 4 m/s 689 mmHg 30%
    14:00 +27°C° 0 mm 4 m/s 688 mmHg 26%
    15:00 +27°C° 0 mm 4 m/s 688 mmHg 26%
    16:00 +26°C° 0 mm 4 m/s 687 mmHg 27%
    17:00 +26°C° 0 mm 4 m/s 687 mmHg 27%
    18:00 +23°C° 0 mm 4 m/s 687 mmHg 31%
    19:00 +21°C° 0 mm 3 m/s 687 mmHg 36%
    20:00 +19°C° 0 mm 3 m/s 687 mmHg 40%
    21:00 +18°C° 0 mm 3 m/s 687 mmHg 42%
    22:00 +18°C° 0 mm 3 m/s 688 mmHg 43%
    23:00 +17°C° 0 mm 3 m/s 688 mmHg 44%

    23 Julho, Segunda-feira

    Tempo Temperatura Precipitação Vento Pressão Humidade
    00:00 +17°C° 0 mm 3 m/s 688 mmHg 47%
    01:00 +16°C° 0 mm 3 m/s 688 mmHg 50%
    02:00 +16°C° 0 mm 3 m/s 688 mmHg 53%
    03:00 +14°C° 0 mm 3 m/s 687 mmHg 57%
    04:00 +14°C° 0 mm 3 m/s 687 mmHg 62%
    05:00 +13°C° 0 mm 3 m/s 687 mmHg 66%
    06:00 +14°C° 0 mm 4 m/s 688 mmHg 66%
    07:00 +14°C° 0 mm 4 m/s 688 mmHg 66%
    08:00 +14°C° 0 mm 4 m/s 689 mmHg 66%
    09:00 +17°C° 0 mm 4 m/s 689 mmHg 59%
    10:00 +20°C° 0 mm 4 m/s 690 mmHg 51%
    11:00 +22°C° 0 mm 4 m/s 690 mmHg 44%
    12:00 +23°C° 0 mm 4 m/s 690 mmHg 39%
    13:00 +26°C° 0 mm 4 m/s 689 mmHg 34%
    14:00 +27°C° 0 mm 4 m/s 688 mmHg 29%
    15:00 +27°C° 0 mm 4 m/s 688 mmHg 29%
    16:00 +27°C° 0 mm 4 m/s 687 mmHg 29%
    17:00 +26°C° 0 mm 4 m/s 687 mmHg 29%
    18:00 +25°C° 0 mm 4 m/s 687 mmHg 34%
    19:00 +22°C° 0 mm 3 m/s 687 mmHg 39%
    20:00 +20°C° 0 mm 3 m/s 687 mmHg 43%
    21:00 +19°C° 0 mm 3 m/s 687 mmHg 45%
    22:00 +18°C° 0 mm 3 m/s 687 mmHg 48%
    23:00 +18°C° 0 mm 3 m/s 688 mmHg 50%

    24 Julho, Terça-feira

    Tempo Temperatura Precipitação Vento Pressão Humidade
    00:00 +17°C° 0 mm 3 m/s 688 mmHg 53%
    01:00 +16°C° 0 mm 3 m/s 687 mmHg 57%
    02:00 +16°C° 0 mm 3 m/s 687 mmHg 61%
    03:00 +14°C° 0 mm 3 m/s 687 mmHg 63%
    04:00 +14°C° 0 mm 3 m/s 687 mmHg 66%
    05:00 +13°C° 0 mm 3 m/s 687 mmHg 68%
    06:00 +13°C° 0 mm 3 m/s 687 mmHg 67%
    07:00 +13°C° 0 mm 3 m/s 688 mmHg 66%
    08:00 +14°C° 0 mm 3 m/s 688 mmHg 66%
    09:00 +17°C° 0 mm 3 m/s 689 mmHg 57%
    10:00 +20°C° 0 mm 3 m/s 689 mmHg 48%
    11:00 +24°C° 0 mm 3 m/s 690 mmHg 39%
    12:00 +25°C° 0 mm 3 m/s 689 mmHg 35%
    13:00 +26°C° 0 mm 3 m/s 688 mmHg 31%
    14:00 +27°C° 0 mm 3 m/s 687 mmHg 26%
    15:00 +27°C° 0 mm 3 m/s 687 mmHg 26%
    16:00 +27°C° 0 mm 3 m/s 687 mmHg 26%
    17:00 +27°C° 0 mm 2 m/s 686 mmHg 25%
    18:00 +25°C° 0 mm 3 m/s 686 mmHg 29%
    19:00 +22°C° 0 mm 3 m/s 686 mmHg 34%
    20:00 +20°C° 0 mm 3 m/s 686 mmHg 38%
    21:00 +19°C° 0 mm 3 m/s 686 mmHg 41%
    22:00 +18°C° 0 mm 3 m/s 686 mmHg 43%
    23:00 +18°C° 0 mm 3 m/s 686 mmHg 46%

    25 Julho, Quarta-feira

    Tempo Temperatura Precipitação Vento Pressão Humidade
    00:00 +17°C° 0 mm 2 m/s 686 mmHg 47%
    01:00 +16°C° 0 mm 2 m/s 686 mmHg 48%
    02:00 +16°C° 0 mm 2 m/s 686 mmHg 50%
    03:00 +15°C° 0 mm 2 m/s 685 mmHg 51%
    04:00 +15°C° 0 mm 2 m/s 685 mmHg 52%
    05:00 +14°C° 0 mm 2 m/s 685 mmHg 54%
    06:00 +15°C° 0 mm 2 m/s 686 mmHg 54%
    07:00 +15°C° 0 mm 2 m/s 686 mmHg 54%
    08:00 +15°C° 0 mm 2 m/s 687 mmHg 54%
    09:00 +18°C° 0 mm 2 m/s 687 mmHg 46%
    10:00 +22°C° 0 mm 3 m/s 688 mmHg 38%
    11:00 +26°C° 0 mm 3 m/s 688 mmHg 30%
    12:00 +27°C° 0 mm 3 m/s 687 mmHg 27%
    13:00 +28°C° 0 mm 2 m/s 687 mmHg 23%
    14:00 +29°C° 0 mm 2 m/s 686 mmHg 19%
    15:00 +29°C° 0 mm 2 m/s 686 mmHg 19%
    16:00 +29°C° 0 mm 2 m/s 685 mmHg 19%
    17:00 +29°C° 0 mm 2 m/s 685 mmHg 18%
    18:00 +26°C° 0 mm 2 m/s 685 mmHg 22%
    19:00 +24°C° 0 mm 2 m/s 685 mmHg 26%
    20:00 +21°C° 0 mm 2 m/s 685 mmHg 30%
    21:00 +20°C° 0 mm 2 m/s 685 mmHg 32%
    22:00 +19°C° 0 mm 2 m/s 685 mmHg 35%
    23:00 +18°C° 0 mm 3 m/s 685 mmHg 38%
    Mostrar mais